Theta_e
319 319 318 317 314 312 312 313 313 314 314 314 313 313 312 312 313 320 324 327 337 344 348 349 347 347 347 348 346 347 354 359 358 354 354 350 354 349 346 348 347 345 346 345 347
321 320 318 315 314 313 312 312 313 313 313 314 313 313 312 312 317 322 319 323 338 346 350 347 349 346 347 351 352 353 352 357 350 346 353 350 352 351 351 349 348 350 346 347 348
320 319 318 316 314 313 312 312 312 312 313 314 313 312 312 313 323 325 327 326 340 345 346 347 347 349 351 348 356 350 354 352 349 351 350 350 352 350 350 352 348 351 349 348 349
320 319 318 316 315 314 313 312 312 313 313 313 313 312 313 318 327 334 328 336 341 346 347 346 346 349 350 352 352 355 352 348 349 349 350 352 349 352 351 350 345 348 347 348 349
319 319 318 316 315 315 314 313 312 312 313 312 312 312 319 323 316 330 333 337 343 349 346 343 348 349 354 351 353 356 351 349 350 348 350 349 352 352 351 347 346 347 347 348 349
319 319 317 316 316 315 316 316 315 312 312 312 312 314 321 313 320 330 333 338 343 349 347 344 344 347 350 351 353 353 353 350 350 349 350 352 350 350 349 347 349 349 348 348 348
318 318 317 317 316 316 316 317 317 315 312 312 312 318 321 312 326 331 333 337 343 348 346 345 350 353 349 348 350 352 351 346 347 348 351 348 350 353 349 349 350 347 347 347 346
317 318 316 316 316 316 317 319 318 315 313 313 313 320 311 317 336 336 338 343 345 349 348 349 349 352 355 349 343 345 346 349 348 349 350 345 348 350 348 349 350 348 347 347 345
318 318 316 315 315 317 318 320 317 315 314 314 320 319 312 326 341 340 341 347 351 350 350 350 348 353 349 344 336 335 344 346 346 348 351 347 348 350 345 347 348 346 346 346 344
318 319 316 315 315 317 318 322 320 319 317 318 324 321 320 323 323 335 338 341 340 342 343 345 346 342 328 334 345 338 342 341 345 345 348 351 351 350 346 345 346 345 344 344 343
318 320 317 315 315 316 316 321 318 318 324 319 321 319 322 323 320 330 334 338 336 335 345 341 330 328 334 331 334 333 335 339 340 347 351 350 352 350 346 345 345 342 342 342 343
318 321 318 315 316 316 317 317 322 325 324 321 320 321 322 324 323 319 333 329 331 330 327 327 326 327 325 323 325 326 332 336 343 349 349 351 352 351 347 345 343 342 341 341 340
318 321 320 316 316 319 319 323 324 322 322 323 322 322 324 323 322 319 321 324 331 331 329 329 329 326 326 321 320 325 334 333 339 351 349 352 349 352 349 345 343 341 339 339 339
317 320 321 317 320 320 318 323 320 321 320 322 320 322 318 318 320 319 327 330 330 332 329 327 326 324 319 319 316 319 323 328 350 347 343 346 347 336 348 349 346 344 341 339 338
318 319 322 318 317 316 321 320 323 320 320 324 319 319 316 318 320 320 326 327 328 326 321 322 322 320 320 320 317 317 319 345 347 336 347 352 350 344 341 346 346 345 343 341 339
318 320 322 320 317 318 320 322 323 325 328 325 319 320 319 319 320 320 323 322 323 325 318 320 317 319 318 320 318 319 321 318 316 316 320 325 349 337 339 343 343 343 345 342 340
320 321 322 319 317 327 322 323 328 330 328 324 320 318 318 320 320 320 321 323 322 318 316 315 322 320 319 320 320 319 317 320 322 321 321 321 347 341 328 330 340 340 341 344 342
323 322 324 322 321 321 325 325 333 334 332 326 320 317 320 317 319 318 317 320 316 315 314 318 325 325 324 320 322 321 318 319 324 322 325 324 330 329 329 342 335 339 347 346 344
324 324 323 325 325 322 321 326 330 331 329 327 323 324 324 321 319 318 317 315 316 314 318 322 325 323 324 324 322 323 321 316 314 317 327 327 330 333 343 350 350 350 349 349 347
324 324 325 326 326 322 321 325 328 327 328 323 326 325 326 325 321 317 318 321 322 314 319 323 325 324 323 323 322 323 317 320 314 322 334 330 334 333 344 352 351 350 349 348 346
323 321 324 323 326 322 324 323 325 324 325 324 325 325 325 326 326 326 326 327 325 324 321 321 322 324 322 324 323 321 319 312 314 317 328 333 333 328 336 345 349 348 349 347 346
317 324 326 325 328 314 323 324 322 325 323 324 324 326 327 326 326 327 329 327 325 323 326 321 319 324 325 319 316 321 319 316 321 322 316 323 332 329 332 337 343 347 348 346 345
322 323 328 322 325 321 322 325 325 326 325 324 326 326 325 326 328 326 326 325 323 324 324 321 318 321 319 319 321 323 322 314 312 313 318 331 334 328 332 337 340 348 347 345 344
322 327 323 317 316 325 325 325 328 327 324 323 324 324 325 325 323 327 328 326 325 324 333 322 313 317 320 321 320 326 325 318 317 318 317 318 321 326 323 342 338 340 345 345 342
320 323 322 326 323 325 322 326 330 331 328 323 325 325 325 326 327 328 325 325 324 326 321 319 323 317 319 318 321 324 326 325 324 321 323 323 318 325 340 339 339 331 343 345 343
322 321 320 322 321 325 323 329 331 329 330 325 327 325 327 326 324 326 326 325 326 324 321 315 322 321 324 322 324 325 324 322 322 318 322 324 341 340 342 345 347 344 343 345 344
314 317 322 320 324 324 325 329 330 328 328 328 328 324 328 325 323 324 321 320 324 325 321 320 317 318 322 320 323 324 324 325 326 324 330 339 337 339 347 347 345 348 344 344 350
Wind_Speed
18 17 15 13 12 11 9 9 8 8 8 8 8 7 8 10 9 2 5 4 11 25 21 17 8 6 6 1 1 1 3 4 3 2 5 6 6 3 6 7 3 4 4 15 27
18 17 15 13 11 11 9 8 8 8 8 7 7 7 7 10 6 10 12 11 16 26 22 15 8 7 2 3 2 2 3 1 5 5 4 4 5 6 4 7 4 8 16 30 27
19 17 15 13 12 10 8 7 6 7 6 6 6 6 7 8 3 6 7 15 26 24 17 9 5 4 2 1 2 1 0 1 5 5 2 2 6 6 9 5 6 13 19 23 25
21 18 15 12 10 8 7 5 5 4 4 4 5 5 6 1 6 1 13 22 27 22 14 4 3 4 5 5 1 4 4 3 1 2 2 2 6 4 3 3 4 18 22 21 18
23 19 16 12 8 6 5 4 3 2 2 2 4 4 1 1 7 4 16 24 27 21 9 5 1 2 4 1 6 2 3 2 2 3 5 7 5 6 5 5 14 18 19 20 16
24 20 15 11 7 5 4 3 3 2 2 3 3 1 1 3 4 11 23 25 23 22 6 8 1 4 0 1 1 8 8 4 5 6 2 5 5 6 4 10 15 17 18 15 15
24 21 14 10 6 5 5 4 3 2 3 3 1 1 1 9 3 16 25 26 27 25 1 2 7 6 4 3 6 5 6 7 5 2 2 0 2 3 12 13 16 16 12 13 10
27 21 14 9 5 5 5 3 2 3 3 2 2 2 6 3 1 20 22 17 20 19 7 9 7 4 2 4 3 1 2 5 6 1 1 5 5 5 9 13 12 15 12 12 12
27 21 13 9 5 5 6 2 2 3 4 4 2 1 6 1 7 21 21 7 15 7 10 12 7 5 3 1 4 4 3 4 7 4 2 2 2 6 9 8 10 10 12 13 11
29 19 13 9 5 4 5 1 4 5 4 3 0 2 2 4 7 16 19 9 5 6 4 2 2 4 3 3 4 4 4 6 6 5 3 4 1 9 11 9 10 9 10 11 12
29 18 12 9 6 5 2 4 3 2 2 7 2 2 4 1 9 10 18 6 4 4 5 4 3 7 12 9 5 3 5 7 4 2 1 3 2 9 11 9 8 9 10 12 14
28 17 12 9 8 7 1 2 3 1 5 5 4 6 8 3 2 5 21 7 6 6 2 2 7 12 4 7 6 5 2 5 2 3 1 7 2 8 14 10 12 12 12 14 11
27 18 12 8 8 2 1 4 2 5 3 6 4 4 3 7 5 7 12 7 5 7 6 6 9 3 4 5 4 3 5 5 4 2 1 3 7 5 9 6 10 11 14 14 15
28 20 11 7 2 2 4 2 13 6 5 4 3 4 3 3 1 4 8 6 1 8 6 6 5 3 4 5 6 2 7 5 9 5 2 3 4 4 4 11 14 16 15 16 17
28 21 10 6 5 2 2 14 4 3 4 1 3 2 1 6 3 1 3 4 7 4 4 7 2 5 4 5 4 8 6 8 4 4 3 1 2 6 4 7 11 14 19 17 18
29 20 8 5 7 7 7 8 3 5 3 3 3 4 4 2 2 3 2 5 1 2 2 8 4 3 6 2 5 6 6 7 6 3 4 2 3 6 1 5 2 9 13 17 19
31 16 7 6 2 2 11 3 5 5 6 3 3 3 3 3 1 2 5 2 3 3 5 7 4 3 4 1 3 7 6 3 4 2 5 4 4 8 9 4 4 8 11 15 18
30 8 5 11 4 2 3 5 7 2 5 5 3 2 3 6 1 2 3 1 2 5 0 2 7 4 5 3 3 4 5 5 1 2 2 3 3 5 6 5 2 2 3 6 8
19 4 4 5 9 2 5 4 5 5 4 5 6 5 4 4 3 3 3 5 4 7 7 2 4 6 1 3 2 1 5 4 7 3 2 3 5 5 6 9 6 6 6 7 7
10 5 5 8 9 6 5 4 4 5 2 2 1 0 2 2 3 3 5 3 2 7 3 4 2 2 6 3 5 1 5 4 4 1 1 4 3 4 3 3 1 5 7 6 6
5 4 13 11 4 5 2 5 5 6 6 5 4 0 1 2 3 2 5 3 4 3 3 4 3 6 3 5 3 5 3 6 5 3 4 1 5 6 6 6 5 5 3 3 5
5 3 3 5 3 1 2 3 4 4 2 3 3 2 2 1 3 2 1 2 0 6 4 2 4 1 1 2 2 2 3 4 5 2 2 3 5 3 5 1 4 6 5 3 4
2 2 4 2 2 2 5 4 3 6 4 3 2 1 1 3 2 1 2 4 5 2 4 4 3 3 7 7 5 6 3 5 4 3 3 4 5 0 3 5 3 3 4 4 6
2 4 4 4 1 3 5 4 6 6 2 4 2 2 3 4 5 1 1 2 2 4 7 8 3 6 5 6 3 2 3 3 4 3 4 5 5 4 6 7 8 6 3 2 5
4 0 3 3 4 3 2 4 4 6 5 5 2 5 1 4 1 0 1 2 4 1 3 4 4 4 5 4 2 3 5 4 6 5 6 4 7 5 6 7 7 7 5 4 3
3 3 4 1 3 3 3 2 3 5 2 6 4 8 2 4 7 8 4 1 3 3 3 2 2 4 2 1 2 4 7 7 6 4 2 4 4 2 5 2 4 3 6 4 3
5 3 2 3 4 1 2 2 2 5 3 1 5 4 2 5 5 3 3 2 2 4 3 3 6 3 5 3 5 4 5 4 4 3 6 5 5 2 2 6 6 6 5 4 6
Wind_Direction
338 334 329 325 321 315 305 301 291 279 270 268 277 291 294 299 312 271 240 150 172 157 163 170 201 184 218 338 122 55 70 148 157 65 286 323 169 67 74 124 166 128 143 139 148
339 335 330 328 323 319 311 303 289 278 271 269 280 289 292 307 301 243 251 189 167 164 159 175 189 167 235 181 193 51 32 176 157 175 221 285 207 136 116 134 90 85 107 131 143
341 336 331 328 325 321 315 306 292 280 278 277 283 294 300 316 301 243 185 187 172 169 163 191 109 203 172 65 63 329 64 125 227 187 218 216 143 149 131 213 193 161 148 148 148
343 338 331 331 328 326 325 316 305 293 294 287 287 299 318 209 181 243 157 176 175 164 140 119 334 13 27 345 46 335 174 221 252 110 285 196 153 102 112 311 225 153 157 152 154
345 340 332 330 332 332 335 326 308 288 276 265 275 304 153 186 255 139 168 178 175 175 168 133 68 47 329 317 315 211 76 153 237 296 113 101 85 123 55 46 116 134 149 157 155
346 341 335 330 328 328 323 310 292 262 233 231 253 305 140 228 299 170 172 178 182 192 180 149 145 204 117 326 235 314 325 332 280 294 268 137 120 116 107 119 121 140 148 157 163
347 343 338 333 329 335 338 313 277 255 228 222 219 124 82 231 321 179 179 189 189 196 94 192 32 17 331 320 240 293 333 344 279 201 272 152 101 94 137 135 137 150 147 161 166
350 346 345 336 331 345 351 335 232 196 181 191 168 156 240 297 200 181 185 200 201 199 276 344 264 336 263 292 359 246 346 337 284 28 159 96 273 131 146 139 147 153 161 172 175
353 350 349 340 334 0 358 8 159 154 146 131 98 112 278 120 153 181 184 178 196 214 269 291 332 216 290 246 357 349 293 247 300 235 47 119 353 144 151 150 155 166 173 181 189
358 353 349 340 341 6 5 122 134 110 117 117 43 24 258 236 159 183 189 162 140 132 354 175 267 288 33 114 234 214 205 264 255 282 175 272 164 157 160 170 173 170 184 201 200
0 355 346 338 341 345 17 126 37 29 239 197 190 256 300 69 145 174 179 168 46 117 169 194 131 223 238 209 237 211 213 237 239 327 28 203 51 175 172 176 179 177 196 209 220
1 356 342 332 329 330 47 162 190 188 319 229 248 277 257 245 101 111 151 155 141 204 219 356 239 243 206 241 234 223 195 250 338 103 204 349 220 172 178 201 187 186 200 217 217
1 353 339 320 318 350 259 230 205 317 143 296 196 206 218 149 188 201 149 162 166 182 194 180 243 316 312 281 173 215 170 208 206 73 14 33 305 166 198 197 189 194 207 214 214
357 351 334 312 334 335 270 348 310 188 64 288 287 271 135 133 242 191 173 142 187 211 192 236 275 233 288 258 136 296 190 160 141 122 212 62 271 315 189 192 198 207 205 206 215
352 343 320 276 303 242 140 340 109 113 67 232 222 147 120 146 141 286 197 71 192 194 116 256 244 234 247 233 158 228 122 152 158 90 88 296 41 268 119 212 213 207 211 209 213
348 333 302 277 253 260 305 338 138 42 33 332 185 167 118 3 353 108 105 54 112 165 316 251 262 238 209 273 196 116 83 48 54 64 0 357 141 297 149 264 171 209 213 207 210
344 325 261 206 233 166 349 61 35 88 353 305 240 144 142 196 281 141 160 160 168 13 0 333 281 278 207 271 358 64 63 4 37 37 219 302 104 258 298 277 221 174 205 214 216
343 327 254 226 78 291 360 49 60 339 267 307 351 97 176 153 216 128 74 271 184 104 334 32 350 11 346 225 189 60 136 144 184 162 272 351 267 280 317 308 156 122 164 185 222
348 344 305 344 242 256 70 56 198 200 253 319 336 46 329 333 133 136 172 206 218 168 170 124 283 311 239 330 54 153 43 166 104 20 75 276 291 322 343 30 40 26 0 315 297
343 343 25 339 132 130 75 224 234 216 207 187 118 339 26 358 102 127 193 198 225 185 192 184 340 325 296 41 29 114 151 40 14 104 79 312 285 233 280 168 280 263 255 295 323
4 55 3 133 10 52 138 236 268 242 211 165 169 196 347 56 96 159 189 233 202 102 101 116 143 290 13 27 323 16 42 52 110 100 146 121 274 219 210 216 231 267 255 13 4
359 64 59 307 50 43 171 206 296 299 279 275 111 128 175 116 81 159 141 243 264 143 144 182 130 196 212 358 291 4 109 107 112 222 83 130 281 261 250 322 6 305 21 356 50
24 272 7 44 107 334 315 308 275 334 329 351 296 336 115 66 89 39 38 14 5 100 150 184 34 18 353 0 355 48 16 110 104 84 185 128 264 316 35 50 345 232 295 327 70
32 13 334 41 37 88 9 344 324 328 280 358 296 105 96 41 33 224 342 353 22 92 84 85 109 148 176 203 182 30 9 91 106 106 180 221 282 301 354 330 310 271 177 77 77
26 346 174 336 348 13 357 352 330 347 358 1 27 29 178 139 58 293 292 329 52 88 68 104 150 176 232 222 189 216 226 193 199 194 160 260 208 277 300 297 286 269 136 110 58
53 25 355 279 300 324 354 11 4 321 292 336 39 320 356 165 182 205 169 223 196 10 76 20 187 166 270 178 218 260 253 236 226 129 263 167 245 290 321 24 19 46 128 145 135
17 28 96 308 341 30 224 324 330 355 279 296 338 330 32 4 291 272 183 151 186 173 157 131 134 107 248 353 5 334 246 219 197 173 155 172 208 64 33 50 21 42 102 115 58